"Sample Date","Sample Time","Sample Value","Units","Flow Rate","Number Channels","Micron Size 0","Counts/Channel 0","Micron Size 1","Counts/Channel 1","Micron Size 2","Counts/Channel 2","Micron Size 3","Counts/Channel 3","Micron Size 4","Counts/Channel 4","Micron Size 5","Counts/Channel 5","Micron Size 6","Counts/Channel 6","Micron Size 7","Counts/Channel 7","Micron Size 8","Counts/Channel 8","Micron Size 9","Counts/Channel 9","Micron Size 10","Counts/Channel 10","Micron Size 11","Counts/Channel 11","Micron Size 12","Counts/Channel 12","Micron Size 13","Counts/Channel 13","Micron Size 14","Counts/Channel 14","Micron Size 15","Counts/Channel 15","Micron Size 16","Counts/Channel 16","Micron Size 17","Counts/Channel 17","Micron Size 18","Counts/Channel 18","Micron Size 19","Counts/Channel 19","Micron Size 20","Counts/Channel 20","Micron Size 21","Counts/Channel 21","Micron Size 22","Counts/Channel 22","Micron Size 23","Counts/Channel 23","Micron Size 24","Counts/Channel 24","Micron Size 25","Counts/Channel 25","Micron Size 26","Counts/Channel 26","Micron Size 27","Counts/Channel 27","Micron Size 28","Counts/Channel 28","Micron Size 29","Counts/Channel 29","Micron Size 30","Counts/Channel 30","Micron Size 31","Counts/Channel 31"
"05/10/08","17:00:00",7400.000,"cc",28283.174,6,0.100,6360.000,0.200,970.000,0.300,59.000,0.500,11.000,1.000,0,5.000,0
"05/10/08","17:00:06",18655.000,"cc",28266.424,6,0.100,16249.000,0.200,2289.000,0.300,104.000,0.500,13.000,1.000,0,5.000,0
"05/10/08","17:00:12",12999.000,"cc",28378.482,6,0.100,11306.000,0.200,1605.000,0.300,75.000,0.500,12.000,1.000,1.000,5.000,0
"05/10/08","17:00:18",24544.000,"cc",28402.867,6,0.100,21550.000,0.200,2842.000,0.300,135.000,0.500,14.000,1.000,3.000,5.000,0
"05/10/08","17:00:24",16644.000,"cc",28300.301,6,0.100,14511.000,0.200,2009.000,0.300,106.000,0.500,17.000,1.000,1.000,5.000,0
"05/10/08","17:00:30",16180.000,"cc",28288.500,6,0.100,14107.000,0.200,1967.000,0.300,85.000,0.500,20.000,1.000,1.000,5.000,0
"05/10/08","17:00:36",15157.000,"cc",28287.604,6,0.100,13204.000,0.200,1838.000,0.300,98.000,0.500,17.000,1.000,0,5.000,0
"05/10/08","17:00:42",24354.000,"cc",28344.811,6,0.100,21320.000,0.200,2912.000,0.300,107.000,0.500,15.000,1.000,0,5.000,0
"05/10/08","17:00:48",15836.000,"cc",28324.854,6,0.100,13832.000,0.200,1889.000,0.300,101.000,0.500,13.000,1.000,1.000,5.000,0
"05/10/08","17:00:54",14273.000,"cc",28347.285,6,0.100,12487.000,0.200,1698.000,0.300,78.000,0.500,10.000,1.000,0,5.000,0
"05/10/08","17:01:00",17694.000,"cc",28342.857,6,0.100,15444.000,0.200,2142.000,0.300,96.000,0.500,12.000,1.000,0,5.000,0
"05/10/08","17:01:06",15309.000,"cc",28308.754,6,0.100,13275.000,0.200,1901.000,0.300,119.000,0.500,12.000,1.000,2.000,5.000,0
"05/10/08","17:01:12",13299.000,"cc",28251.844,6,0.100,11577.000,0.200,1621.000,0.300,86.000,0.500,15.000,1.000,0,5.000,0
"05/10/08","17:01:18",12331.000,"cc",28317.811,6,0.100,10701.000,0.200,1534.000,0.300,78.000,0.500,18.000,1.000,0,5.000,0
"05/10/08","17:01:24",11236.000,"cc",28300.385,6,0.100,9716.000,0.200,1420.000,0.300,83.000,0.500,16.000,1.000,1.000,5.000,0
"05/10/08","17:01:30",9112.000,"cc",28323.565,6,0.100,7805.000,0.200,1215.000,0.300,77.000,0.500,15.000,1.000,0,5.000,0
"05/10/08","17:01:36",6866.000,"cc",28319.131,6,0.100,5815.000,0.200,973.000,0.300,63.000,0.500,14.000,1.000,1.000,5.000,0
"05/10/08","17:01:42",17877.000,"cc",28359.225,6,0.100,15639.000,0.200,2124.000,0.300,103.000,0.500,9.000,1.000,2.000,5.000,0
"05/10/08","17:01:48",14889.000,"cc",28318.766,6,0.100,12964.000,0.200,1831.000,0.300,82.000,0.500,11.000,1.000,1.000,5.000,0
"05/10/08","17:01:54",22347.000,"cc",28328.574,6,0.100,19499.000,0.200,2723.000,0.300,112.000,0.500,13.000,1.000,0,5.000,0
"05/10/08","17:02:00",23140.000,"cc",28315.674,6,0.100,20103.000,0.200,2915.000,0.300,105.000,0.500,17.000,1.000,0,5.000,0
"05/10/08","17:02:06",27951.000,"cc",28353.102,6,0.100,24456.000,0.200,3336.000,0.300,148.000,0.500,11.000,1.000,0,5.000,0
"05/10/08","17:02:12",23343.000,"cc",28275.252,6,0.100,20360.000,0.200,2863.000,0.300,111.000,0.500,9.000,1.000,0,5.000,0
"05/10/08","17:02:18",19044.000,"cc",28295.418,6,0.100,16648.000,0.200,2279.000,0.300,103.000,0.500,13.000,1.000,1.000,5.000,0
"05/10/08","17:02:24",12586.000,"cc",28300.750,6,0.100,10914.000,0.200,1597.000,0.300,63.000,0.500,12.000,1.000,0,5.000,0
"05/10/08","17:02:30",32095.000,"cc",28294.996,6,0.100,27934.000,0.200,3988.000,0.300,159.000,0.500,14.000,1.000,0,5.000,0
"05/10/08","17:02:36",26183.000,"cc",28325.504,6,0.100,23028.000,0.200,3028.000,0.300,119.000,0.500,8.000,1.000,0,5.000,0
"05/10/08","17:02:42",21616.000,"cc",28308.906,6,0.100,18768.000,0.200,2710.000,0.300,121.000,0.500,16.000,1.000,1.000,5.000,0
"05/10/08","17:02:48",18397.000,"cc",28347.291,6,0.100,15933.000,0.200,2354.000,0.300,102.000,0.500,8.000,1.000,0,5.000,0
"05/10/08","17:02:54",21421.000,"cc",28348.197,6,0.100,18657.000,0.200,2635.000,0.300,115.000,0.500,14.000,1.000,0,5.000,0
"05/10/08","17:03:00",23698.000,"cc",28315.502,6,0.100,20595.000,0.200,2953.000,0.300,130.000,0.500,19.000,1.000,1.000,5.000,0
"05/10/08","17:03:06",15712.000,"cc",28310.465,6,0.100,13659.000,0.200,1948.000,0.300,94.000,0.500,9.000,1.000,2.000,5.000,0
"05/10/08","17:03:12",11700.000,"cc",28313.324,6,0.100,9971.000,0.200,1619.000,0.300,93.000,0.500,17.000,1.000,0,5.000,0
"05/10/08","17:03:18",9762.000,"cc",28313.045,6,0.100,8340.000,0.200,1323.000,0.300,86.000,0.500,13.000,1.000,0,5.000,0
"05/10/08","17:03:24",7252.000,"cc",28285.693,6,0.100,6142.000,0.200,1022.000,0.300,66.000,0.500,22.000,1.000,0,5.000,0
"05/10/08","17:03:30",14086.000,"cc",28300.072,6,0.100,12111.000,0.200,1840.000,0.300,118.000,0.500,15.000,1.000,2.000,5.000,0
"05/10/08","17:03:36",14898.000,"cc",28338.592,6,0.100,12778.000,0.200,1979.000,0.300,118.000,0.500,23.000,1.000,0,5.000,0
"05/10/08","17:03:42",9356.000,"cc",28349.217,6,0.100,8005.000,0.200,1250.000,0.300,84.000,0.500,17.000,1.000,0,5.000,0
"05/10/08","17:03:48",8522.000,"cc",28296.529,6,0.100,7277.000,0.200,1162.000,0.300,75.000,0.500,8.000,1.000,0,5.000,0
"05/10/08","17:03:54",14110.000,"cc",28311.043,6,0.100,12195.000,0.200,1810.000,0.300,97.000,0.500,8.000,1.000,0,5.000,0
"05/10/08","17:04:00",13339.000,"cc",28323.207,6,0.100,11460.000,0.200,1767.000,0.300,99.000,0.500,10.000,1.000,3.000,5.000,0
"05/10/08","17:04:06",20868.000,"cc",28380.297,6,0.100,18083.000,0.200,2629.000,0.300,143.000,0.500,13.000,1.000,0,5.000,0
"05/10/08","17:04:12",17074.000,"cc",28313.523,6,0.100,14793.000,0.200,2141.000,0.300,128.000,0.500,12.000,1.000,0,5.000,0
"05/10/08","17:04:18",17881.000,"cc",28324.066,6,0.100,15531.000,0.200,2198.000,0.300,138.000,0.500,14.000,1.000,0,5.000,0
"05/10/08","17:04:24",16585.000,"cc",28362.408,6,0.100,14306.000,0.200,2145.000,0.300,111.000,0.500,23.000,1.000,0,5.000,0
"05/10/08","17:04:30",17223.000,"cc",28292.977,6,0.100,14837.000,0.200,2249.000,0.300,120.000,0.500,17.000,1.000,0,5.000,0
"05/10/08","17:04:36",13193.000,"cc",28319.842,6,0.100,11381.000,0.200,1699.000,0.300,101.000,0.500,11.000,1.000,1.000,5.000,0
"05/10/08","17:04:42",17321.000,"cc",28321.666,6,0.100,15033.000,0.200,2170.000,0.300,108.000,0.500,10.000,1.000,0,5.000,0
"05/10/08","17:04:48",16194.000,"cc",28272.299,6,0.100,13926.000,0.200,2145.000,0.300,114.000,0.500,8.000,1.000,1.000,5.000,0
"05/10/08","17:04:54",9857.000,"cc",28350.986,6,0.100,8411.000,0.200,1351.000,0.300,74.000,0.500,21.000,1.000,0,5.000,0
"05/10/08","17:05:00",10769.000,"cc",28348.022,6,0.100,9188.000,0.200,1486.000,0.300,84.000,0.500,11.000,1.000,0,5.000,0
"05/10/08","17:05:06",12502.000,"cc",28281.930,6,0.100,10701.000,0.200,1697.000,0.300,84.000,0.500,20.000,1.000,0,5.000,0
"05/10/08","17:05:12",14437.000,"cc",28314.717,6,0.100,12413.000,0.200,1912.000,0.300,95.000,0.500,15.000,1.000,2.000,5.000,0
"05/10/08","17:05:18",13830.000,"cc",28238.621,6,0.100,11888.000,0.200,1810.000,0.300,121.000,0.500,11.000,1.000,0,5.000,0
"05/10/08","17:05:24",12040.000,"cc",28277.354,6,0.100,10301.000,0.200,1646.000,0.300,77.000,0.500,16.000,1.000,0,5.000,0
"05/10/08","17:05:30",6494.000,"cc",28345.752,6,0.100,5491.000,0.200,941.000,0.300,53.000,0.500,8.000,1.000,1.000,5.000,0
"05/10/08","17:05:36",18761.000,"cc",28319.813,6,0.100,16233.000,0.200,2396.000,0.300,116.000,0.500,16.000,1.000,0,5.000,0
"05/10/08","17:05:42",14956.000,"cc",28284.447,6,0.100,12970.000,0.200,1886.000,0.300,91.000,0.500,9.000,1.000,0,5.000,0
"05/10/08","17:05:48",19511.000,"cc",28289.315,6,0.100,16852.000,0.200,2514.000,0.300,127.000,0.500,17.000,1.000,1.000,5.000,0
"05/10/08","17:05:54",24106.000,"cc",28375.242,6,0.100,20857.000,0.200,3088.000,0.300,146.000,0.500,15.000,1.000,0,5.000,0
"05/10/08","17:06:00",11795.000,"cc",28357.223,6,0.100,10133.000,0.200,1565.000,0.300,85.000,0.500,12.000,1.000,0,5.000,0
"05/10/08","17:06:06",8168.000,"cc",28294.752,6,0.100,6992.000,0.200,1099.000,0.300,72.000,0.500,5.000,1.000,0,5.000,0
"05/10/08","17:06:12",11394.000,"cc",28300.738,6,0.100,9755.000,0.200,1519.000,0.300,99.000,0.500,18.000,1.000,3.000,5.000,0
"05/10/08","17:06:18",12401.000,"cc",28304.070,6,0.100,10630.000,0.200,1658.000,0.300,97.000,0.500,15.000,1.000,1.000,5.000,0
"05/10/08","17:06:24",16040.000,"cc",28333.756,6,0.100,13739.000,0.200,2148.000,0.300,137.000,0.500,16.000,1.000,0,5.000,0
"05/10/08","17:06:30",9977.000,"cc",28366.949,6,0.100,8460.000,0.200,1418.000,0.300,87.000,0.500,11.000,1.000,1.000,5.000,0
"05/10/08","17:06:36",7281.000,"cc",28306.432,6,0.100,6129.000,0.200,1049.000,0.300,89.000,0.500,14.000,1.000,0,5.000,0
"05/10/08","17:06:42",6952.000,"cc",28292.719,6,0.100,5785.000,0.200,1054.000,0.300,94.000,0.500,19.000,1.000,0,5.000,0
"05/10/08","17:06:48",4258.000,"cc",28239.873,6,0.100,3471.000,0.200,715.000,0.300,63.000,0.500,8.000,1.000,1.000,5.000,0
"05/10/08","17:06:54",4148.000,"cc",28324.256,6,0.100,3390.000,0.200,682.000,0.300,67.000,0.500,9.000,1.000,0,5.000,0
"05/10/08","17:07:00",3791.000,"cc",28354.039,6,0.100,3014.000,0.200,687.000,0.300,79.000,0.500,11.000,1.000,0,5.000,0
"05/10/08","17:07:06",2925.000,"cc",28275.494,6,0.100,2296.000,0.200,569.000,0.300,47.000,0.500,12.000,1.000,1.000,5.000,0
"05/10/08","17:07:12",3430.000,"cc",28360.840,6,0.100,2755.000,0.200,599.000,0.300,61.000,0.500,14.000,1.000,1.000,5.000,0
"05/10/08","17:07:18",3834.000,"cc",28354.359,6,0.100,3082.000,0.200,667.000,0.300,70.000,0.500,14.000,1.000,1.000,5.000,0
"05/10/08","17:07:24",8045.000,"cc",28295.195,6,0.100,6782.000,0.200,1158.000,0.300,88.000,0.500,17.000,1.000,0,5.000,0
"05/10/08","17:07:30",5501.000,"cc",28235.641,6,0.100,4575.000,0.200,840.000,0.300,72.000,0.500,13.000,1.000,1.000,5.000,0
"05/10/08","17:07:36",4066.000,"cc",28333.055,6,0.100,3268.000,0.200,712.000,0.300,71.000,0.500,14.000,1.000,1.000,5.000,0
"05/10/08","17:07:42",3518.000,"cc",28346.588,6,0.100,2819.000,0.200,635.000,0.300,54.000,0.500,10.000,1.000,0,5.000,0
"05/10/08","17:07:48",2929.000,"cc",28335.533,6,0.100,2311.000,0.200,563.000,0.300,49.000,0.500,6.000,1.000,0,5.000,0
"05/10/08","17:07:54",2634.000,"cc",28380.338,6,0.100,2060.000,0.200,520.000,0.300,46.000,0.500,8.000,1.000,0,5.000,0
"05/10/08","17:08:00",2999.000,"cc",28377.260,6,0.100,2388.000,0.200,544.000,0.300,56.000,0.500,10.000,1.000,1.000,5.000,0
"05/10/08","17:08:06",4274.000,"cc",28314.422,6,0.100,3487.000,0.200,731.000,0.300,47.000,0.500,8.000,1.000,1.000,5.000,0
"05/10/08","17:08:12",6722.000,"cc",28300.059,6,0.100,5550.000,0.200,1067.000,0.300,89.000,0.500,14.000,1.000,2.000,5.000,0
"05/10/08","17:08:18",4622.000,"cc",28332.869,6,0.100,3793.000,0.200,753.000,0.300,68.000,0.500,8.000,1.000,0,5.000,0
"05/10/08","17:08:24",4178.000,"cc",28327.272,6,0.100,3421.000,0.200,674.000,0.300,63.000,0.500,19.000,1.000,1.000,5.000,0
"05/10/08","17:08:30",9593.000,"cc",28401.746,6,0.100,8101.000,0.200,1388.000,0.300,92.000,0.500,11.000,1.000,1.000,5.000,0
"05/10/08","17:08:36",8386.000,"cc",28273.748,6,0.100,7062.000,0.200,1211.000,0.300,88.000,0.500,25.000,1.000,0,5.000,0
"05/10/08","17:08:42",8772.000,"cc",28251.147,6,0.100,7424.000,0.200,1239.000,0.300,89.000,0.500,19.000,1.000,1.000,5.000,0
"05/10/08","17:08:48",6710.000,"cc",28337.106,6,0.100,5652.000,0.200,967.000,0.300,77.000,0.500,13.000,1.000,1.000,5.000,0
"05/10/08","17:08:54",6086.000,"cc",28280.027,6,0.100,5101.000,0.200,898.000,0.300,73.000,0.500,13.000,1.000,1.000,5.000,0
"05/10/08","17:09:00",6253.000,"cc",28275.760,6,0.100,5226.000,0.200,938.000,0.300,72.000,0.500,17.000,1.000,0,5.000,0
"05/10/08","17:09:06",7571.000,"cc",28369.014,6,0.100,6396.000,0.200,1077.000,0.300,82.000,0.500,16.000,1.000,0,5.000,0
"05/10/08","17:09:12",7215.000,"cc",28365.648,6,0.100,6117.000,0.200,1017.000,0.300,67.000,0.500,13.000,1.000,1.000,5.000,0
"05/10/08","17:09:18",4258.000,"cc",28314.129,6,0.100,3512.000,0.200,694.000,0.300,43.000,0.500,8.000,1.000,1.000,5.000,0
"05/10/08","17:09:24",3307.000,"cc",28293.777,6,0.100,2710.000,0.200,530.000,0.300,56.000,0.500,10.000,1.000,1.000,5.000,0
"05/10/08","17:09:30",4131.000,"cc",28333.482,6,0.100,3366.000,0.200,687.000,0.300,63.000,0.500,13.000,1.000,2.000,5.000,0
"05/10/08","17:09:36",4152.000,"cc",28309.617,6,0.100,3374.000,0.200,720.000,0.300,45.000,0.500,13.000,1.000,0,5.000,0
"05/10/08","17:09:42",3312.000,"cc",28356.932,6,0.100,2676.000,0.200,565.000,0.300,59.000,0.500,11.000,1.000,1.000,5.000,0
"05/10/08","17:09:48",3189.000,"cc",28307.145,6,0.100,2578.000,0.200,553.000,0.300,49.000,0.500,9.000,1.000,0,5.000,0
"05/10/08","17:09:54",3614.000,"cc",28311.650,6,0.100,2932.000,0.200,623.000,0.300,51.000,0.500,7.000,1.000,1.000,5.000,0
"05/10/08","17:10:00",4101.000,"cc",28289.350,6,0.100,3390.000,0.200,643.000,0.300,62.000,0.500,5.000,1.000,1.000,5.000,0
"05/10/08","17:10:06",3323.000,"cc",28287.018,6,0.100,2665.000,0.200,600.000,0.300,47.000,0.500,11.000,1.000,0,5.000,0
"05/10/08","17:10:12",2857.000,"cc",28291.430,6,0.100,2296.000,0.200,514.000,0.300,33.000,0.500,14.000,1.000,0,5.000,0
"05/10/08","17:10:18",4795.000,"cc",28275.440,6,0.100,3921.000,0.200,789.000,0.300,73.000,0.500,11.000,1.000,1.000,5.000,0
"05/10/08","17:10:24",3502.000,"cc",28281.346,6,0.100,2808.000,0.200,609.000,0.300,68.000,0.500,17.000,1.000,0,5.000,0
"05/10/08","17:10:30",5521.000,"cc",28314.166,6,0.100,4579.000,0.200,857.000,0.300,68.000,0.500,15.000,1.000,2.000,5.000,0
"05/10/08","17:10:36",5580.000,"cc",28301.420,6,0.100,4629.000,0.200,849.000,0.300,84.000,0.500,18.000,1.000,0,5.000,0
"05/10/08","17:10:42",5298.000,"cc",28320.690,6,0.100,4423.000,0.200,787.000,0.300,74.000,0.500,14.000,1.000,0,5.000,0
"05/10/08","17:10:48",3320.000,"cc",28372.705,6,0.100,2717.000,0.200,552.000,0.300,44.000,0.500,7.000,1.000,0,5.000,0
"05/10/08","17:10:54",5584.000,"cc",28321.949,6,0.100,4709.000,0.200,797.000,0.300,65.000,0.500,12.000,1.000,1.000,5.000,0
"05/10/08","17:11:00",5241.000,"cc",28346.674,6,0.100,4363.000,0.200,794.000,0.300,62.000,0.500,18.000,1.000,4.000,5.000,0
"05/10/08","17:11:06",4154.000,"cc",28318.775,6,0.100,3414.000,0.200,665.000,0.300,64.000,0.500,11.000,1.000,0,5.000,0
"05/10/08","17:11:12",4026.000,"cc",28285.096,6,0.100,3253.000,0.200,706.000,0.300,53.000,0.500,14.000,1.000,0,5.000,0
"05/10/08","17:11:18",4596.000,"cc",28304.773,6,0.100,3801.000,0.200,732.000,0.300,51.000,0.500,12.000,1.000,0,5.000,0
"05/10/08","17:11:24",6186.000,"cc",28324.705,6,0.100,5143.000,0.200,939.000,0.300,87.000,0.500,15.000,1.000,2.000,5.000,0
"05/10/08","17:11:30",4243.000,"cc",28317.770,6,0.100,3464.000,0.200,709.000,0.300,56.000,0.500,14.000,1.000,0,5.000,0
"05/10/08","17:11:36",2431.000,"cc",28298.330,6,0.100,1891.000,0.200,478.000,0.300,49.000,0.500,13.000,1.000,0,5.000,0
"05/10/08","17:11:42",3162.000,"cc",28304.340,6,0.100,2550.000,0.200,532.000,0.300,69.000,0.500,10.000,1.000,1.000,5.000,0
"05/10/08","17:11:48",2961.000,"cc",28352.565,6,0.100,2342.000,0.200,545.000,0.300,61.000,0.500,12.000,1.000,1.000,5.000,0
"05/10/08","17:11:54",3474.000,"cc",28315.496,6,0.100,2806.000,0.200,592.000,0.300,61.000,0.500,15.000,1.000,0,5.000,0
"05/10/08","17:12:00",5873.000,"cc",28292.018,6,0.100,4930.000,0.200,857.000,0.300,68.000,0.500,18.000,1.000,0,5.000,0
"05/10/08","17:12:06",6918.000,"cc",28276.188,6,0.100,5848.000,0.200,985.000,0.300,70.000,0.500,14.000,1.000,1.000,5.000,0
"05/10/08","17:12:12",6788.000,"cc",28269.549,6,0.100,5700.000,0.200,1002.000,0.300,67.000,0.500,19.000,1.000,0,5.000,0
"05/10/08","17:12:18",8898.000,"cc",28319.176,6,0.100,7618.000,0.200,1187.000,0.300,75.000,0.500,17.000,1.000,1.000,5.000,0
"05/10/08","17:12:24",5552.000,"cc",28249.262,6,0.100,4634.000,0.200,841.000,0.300,67.000,0.500,10.000,1.000,0,5.000,0
"05/10/08","17:12:30",5058.000,"cc",28314.258,6,0.100,4206.000,0.200,785.000,0.300,51.000,0.500,16.000,1.000,0,5.000,0
"05/10/08","17:12:36",5271.000,"cc",28360.244,6,0.100,4370.000,0.200,832.000,0.300,58.000,0.500,10.000,1.000,1.000,5.000,0
"05/10/08","17:12:42",4771.000,"cc",28352.586,6,0.100,4009.000,0.200,689.000,0.300,54.000,0.500,19.000,1.000,0,5.000,0
"05/10/08","17:12:48",3838.000,"cc",28281.205,6,0.100,3100.000,0.200,671.000,0.300,57.000,0.500,9.000,1.000,1.000,5.000,0
"05/10/08","17:12:54",7635.000,"cc",28298.395,6,0.100,6429.000,0.200,1120.000,0.300,72.000,0.500,13.000,1.000,1.000,5.000,0
"05/10/08","17:13:00",5217.000,"cc",28298.690,6,0.100,4387.000,0.200,756.000,0.300,64.000,0.500,10.000,1.000,0,5.000,0
"05/10/08","17:13:06",6158.000,"cc",28298.072,6,0.100,5170.000,0.200,903.000,0.300,70.000,0.500,15.000,1.000,0,5.000,0
"05/10/08","17:13:12",4415.000,"cc",28329.031,6,0.100,3612.000,0.200,715.000,0.300,69.000,0.500,18.000,1.000,1.000,5.000,0
"05/10/08","17:13:18",3397.000,"cc",28412.680,6,0.100,2759.000,0.200,574.000,0.300,47.000,0.500,17.000,1.000,0,5.000,0
"05/10/08","17:13:24",2558.000,"cc",28307.398,6,0.100,1993.000,0.200,508.000,0.300,49.000,0.500,8.000,1.000,0,5.000,0
"05/10/08","17:13:30",2903.000,"cc",28330.430,6,0.100,2294.000,0.200,541.000,0.300,59.000,0.500,9.000,1.000,0,5.000,0
"05/10/08","17:13:36",2554.000,"cc",28335.584,6,0.100,2056.000,0.200,442.000,0.300,46.000,0.500,10.000,1.000,0,5.000,0
"05/10/08","17:13:42",2448.000,"cc",28342.920,6,0.100,1917.000,0.200,494.000,0.300,30.000,0.500,7.000,1.000,0,5.000,0
"05/10/08","17:13:48",2596.000,"cc",28322.533,6,0.100,2037.000,0.200,499.000,0.300,50.000,0.500,9.000,1.000,1.000,5.000,0
"05/10/08","17:13:54",4477.000,"cc",28306.387,6,0.100,3683.000,0.200,710.000,0.300,70.000,0.500,12.000,1.000,2.000,5.000,0
"05/10/08","17:14:00",2803.000,"cc",28261.934,6,0.100,2262.000,0.200,480.000,0.300,48.000,0.500,13.000,1.000,0,5.000,0
"05/10/08","17:14:06",3295.000,"cc",28308.656,6,0.100,2657.000,0.200,571.000,0.300,58.000,0.500,8.000,1.000,1.000,5.000,0
"05/10/08","17:14:12",2987.000,"cc",28256.088,6,0.100,2440.000,0.200,489.000,0.300,48.000,0.500,10.000,1.000,0,5.000,0
"05/10/08","17:14:18",2408.000,"cc",28332.647,6,0.100,1949.000,0.200,413.000,0.300,36.000,0.500,10.000,1.000,0,5.000,0
"05/10/08","17:14:24",2411.000,"cc",28367.752,6,0.100,1913.000,0.200,443.000,0.300,42.000,0.500,12.000,1.000,1.000,5.000,0
"05/10/08","17:14:30",3405.000,"cc",28332.672,6,0.100,2810.000,0.200,530.000,0.300,53.000,0.500,11.000,1.000,1.000,5.000,0
"05/10/08","17:14:36",4078.000,"cc",28321.000,6,0.100,3341.000,0.200,658.000,0.300,66.000,0.500,13.000,1.000,0,5.000,0
"05/10/08","17:14:42",5995.000,"cc",28266.803,6,0.100,5098.000,0.200,834.000,0.300,53.000,0.500,10.000,1.000,0,5.000,0
"05/10/08","17:14:48",5614.000,"cc",28375.418,6,0.100,4758.000,0.200,788.000,0.300,58.000,0.500,9.000,1.000,1.000,5.000,0
"05/10/08","17:14:54",4253.000,"cc",28312.852,6,0.100,3521.000,0.200,674.000,0.300,48.000,0.500,10.000,1.000,0,5.000,0
"05/10/08","17:15:00",5295.000,"cc",28329.506,6,0.100,4425.000,0.200,774.000,0.300,81.000,0.500,15.000,1.000,0,5.000,0
"05/10/08","17:15:06",4865.000,"cc",28276.861,6,0.100,4116.000,0.200,694.000,0.300,48.000,0.500,6.000,1.000,1.000,5.000,0
"05/10/08","17:15:12",3581.000,"cc",28333.592,6,0.100,2956.000,0.200,566.000,0.300,48.000,0.500,10.000,1.000,1.000,5.000,0
"05/10/08","17:15:18",5635.000,"cc",28303.941,6,0.100,4742.000,0.200,816.000,0.300,60.000,0.500,16.000,1.000,1.000,5.000,0
"05/10/08","17:15:24",3651.000,"cc",28325.840,6,0.100,3001.000,0.200,595.000,0.300,40.000,0.500,15.000,1.000,0,5.000,0
"05/10/08","17:15:30",4699.000,"cc",28303.139,6,0.100,3918.000,0.200,706.000,0.300,61.000,0.500,12.000,1.000,2.000,5.000,0
"05/10/08","17:15:36",7136.000,"cc",28305.258,6,0.100,6061.000,0.200,989.000,0.300,71.000,0.500,15.000,1.000,0,5.000,0
"05/10/08","17:15:42",4855.000,"cc",28380.027,6,0.100,4092.000,0.200,701.000,0.300,54.000,0.500,6.000,1.000,2.000,5.000,0
"05/10/08","17:15:48",4790.000,"cc",28346.180,6,0.100,3979.000,0.200,719.000,0.300,71.000,0.500,21.000,1.000,0,5.000,0
"05/10/08","17:15:54",6150.000,"cc",28240.094,6,0.100,5155.000,0.200,893.000,0.300,81.000,0.500,19.000,1.000,2.000,5.000,0
"05/10/08","17:16:00",6515.000,"cc",28267.820,6,0.100,5473.000,0.200,938.000,0.300,89.000,0.500,15.000,1.000,0,5.000,0
"05/10/08","17:16:06",8346.000,"cc",28267.846,6,0.100,7070.000,0.200,1178.000,0.300,86.000,0.500,11.000,1.000,1.000,5.000,0
"05/10/08","17:16:12",6082.000,"cc",28388.033,6,0.100,5103.000,0.200,898.000,0.300,72.000,0.500,9.000,1.000,0,5.000,0
"05/10/08","17:16:18",9375.000,"cc",28318.008,6,0.100,8072.000,0.200,1228.000,0.300,65.000,0.500,10.000,1.000,0,5.000,0
"05/10/08","17:16:24",12825.000,"cc",28312.846,6,0.100,11105.000,0.200,1593.000,0.300,113.000,0.500,14.000,1.000,0,5.000,0
"05/10/08","17:16:30",8894.000,"cc",28231.775,6,0.100,7595.000,0.200,1216.000,0.300,71.000,0.500,12.000,1.000,0,5.000,0
"05/10/08","17:16:36",7069.000,"cc",28251.898,6,0.100,5969.000,0.200,1029.000,0.300,65.000,0.500,5.000,1.000,1.000,5.000,0
"05/10/08","17:16:42",6691.000,"cc",28385.506,6,0.100,5712.000,0.200,912.000,0.300,54.000,0.500,11.000,1.000,2.000,5.000,0
"05/10/08","17:16:48",4620.000,"cc",28335.455,6,0.100,3838.000,0.200,717.000,0.300,53.000,0.500,12.000,1.000,0,5.000,0
"05/10/08","17:16:54",4192.000,"cc",28325.613,6,0.100,3492.000,0.200,639.000,0.300,49.000,0.500,11.000,1.000,1.000,5.000,0
"05/10/08","17:17:00",3601.000,"cc",28341.957,6,0.100,2951.000,0.200,579.000,0.300,55.000,0.500,16.000,1.000,0,5.000,0
"05/10/08","17:17:06",4077.000,"cc",28265.572,6,0.100,3370.000,0.200,624.000,0.300,64.000,0.500,19.000,1.000,0,5.000,0
"05/10/08","17:17:12",3483.000,"cc",28347.076,6,0.100,2825.000,0.200,585.000,0.300,62.000,0.500,10.000,1.000,1.000,5.000,0
"05/10/08","17:17:18",4556.000,"cc",28313.744,6,0.100,3759.000,0.200,716.000,0.300,64.000,0.500,16.000,1.000,1.000,5.000,0
"05/10/08","17:17:24",5840.000,"cc",28343.277,6,0.100,4904.000,0.200,844.000,0.300,80.000,0.500,12.000,1.000,0,5.000,0
"05/10/08","17:17:30",5002.000,"cc",28313.602,6,0.100,4168.000,0.200,748.000,0.300,70.000,0.500,14.000,1.000,2.000,5.000,0
"05/10/08","17:17:36",3752.000,"cc",28329.121,6,0.100,3131.000,0.200,568.000,0.300,40.000,0.500,11.000,1.000,2.000,5.000,0
"05/10/08","17:17:42",3206.000,"cc",28352.684,6,0.100,2663.000,0.200,478.000,0.300,51.000,0.500,14.000,1.000,0,5.000,0
"05/10/08","17:17:48",5664.000,"cc",28268.080,6,0.100,4780.000,0.200,823.000,0.300,47.000,0.500,14.000,1.000,0,5.000,0
"05/10/08","17:17:54",8353.000,"cc",28251.240,6,0.100,7118.000,0.200,1143.000,0.300,76.000,0.500,15.000,1.000,1.000,5.000,0
"05/10/08","17:18:00",11630.000,"cc",28419.070,6,0.100,9923.000,0.200,1597.000,0.300,94.000,0.500,16.000,1.000,0,5.000,0
"05/10/08","17:18:06",11843.000,"cc",28373.094,6,0.100,10212.000,0.200,1511.000,0.300,99.000,0.500,19.000,1.000,2.000,5.000,0
"05/10/08","17:18:12",7424.000,"cc",28257.967,6,0.100,6320.000,0.200,1009.000,0.300,78.000,0.500,15.000,1.000,2.000,5.000,0
"05/10/08","17:18:18",4341.000,"cc",28350.322,6,0.100,3590.000,0.200,685.000,0.300,59.000,0.500,7.000,1.000,0,5.000,0
"05/10/08","17:18:24",4108.000,"cc",28319.762,6,0.100,3373.000,0.200,677.000,0.300,50.000,0.500,7.000,1.000,1.000,5.000,0